Location: Newark
(34.3481°N, 134.0494°E)
Time: 12:55:18
(UTC+00:00)

Vanguard 3 - Pass Details

Date: 31 January 2020
Orbit: 508 x 3263 km, 33.3° (Epoch: 22 February)

Event Time Altitude Azimuth Distance (km) Brightness Sun altitude
Rises 13:27:40 0° 286° (WNW) 7,105 12.4 -60.3°
Reaches altitude 10° 13:33:20 10° 280° (W) 5,856 11.8 -61.3°
Enters shadow 13:42:29 29° 256° (WSW) 3,940 10.6 -62.9°
Maximum altitude 13:47:44 35° 223° (SW) 3,218 - -63.8°
Drops below altitude 10° 13:57:12 10° 162° (SSE) 3,831 - -65.4°
Sets 14:00:05 0° 152° (SSE) 4,473 - -65.9°
